Regional Weather Roundup
Issued by NWS Midland/Odessa, TX

Home | Current Version | Previous Version | Text Only | Print | Product List | Glossary On
Versions: 1 2 3 4 5 6 7 8 9 10 11 12 13 14 15 16 17 18 19 20 21 22 23 24 25 26 27 28 29 30 31 32 33 34 35 36 37 38 39 40 41 42 43 44 45 46 47 48 49 50
000
ASUS44 KMAF 011110
RWRMAF
MIDLAND AREA WEATHER ROUNDUP
NATIONAL WEATHER SERVICE MIDLAND TX
500 AM CST SUN MAR 01 2015

...IN SOUTHWEST TEXAS AND SOUTHEAST NEW MEXICO...

CITY           SKY/WX    TMP DP  RH WIND       PRES   REMARKS
ALPINE         CLEAR     28  27  94 CALM      30.14F
ANDREWS        FOG       28  28 100 E5        30.16S VSB 3/4 WCI  23
ARTESIA        CLOUDY    30  30 100 S12       30.13S WCI  21
BIG SPRING     CLOUDY    30  28  94 NE5       30.22R WCI  25
CARLSBAD       CLOUDY    33  30  88 S8        30.13R WCI  26
DRYDEN           N/A     40  38  93 CALM      30.15R
FORT STOCKTON  CLOUDY    33  33 100 SW5       30.15S WCI  29
GUAD PASS      NOT AVBL
HOBBS          FOG       28  28 100 CALM      30.13F VSB 1/2
MARFA          CLEAR     30  27  86 N6        30.11S WCI  24
MIDLAND AIRPK  FOG       31  31 100 E3        30.18S VSB 1
MIDLAND INTL   CLOUDY    31  30  96 NE6       30.17R FOG     WCI  25
ODESSA         FOG       31  28  89 E7        30.16S VSB 1   WCI  24
PECOS          CLOUDY    35  34  95 CALM      30.17R
PRESIDIO       FAIR      40  33  77 CALM      30.08R
SEMINOLE       CLOUDY   N/A N/A N/A CALM      30.17R HAZE
SNYDER         CLOUDY   N/A N/A N/A NE6       30.23R FOG
WINK           CLOUDY    35  31  85 E5        30.15S FOG     WCI  31
$$
...OTHER STATIONS IN TEXAS...

CITY           SKY/WX    TMP DP  RH WIND       PRES   REMARKS
ABILENE        FRZ RAIN  29  27  92 N8        30.25R FOG     WCI  21
AMARILLO       FOG       24  23  96 CALM      30.14S VSB 3/4
AUSTIN         DRIZZLE   35  35 100 N9        30.22S FOG     WCI  28
BROWNSVILLE    CLOUDY    49  48  97 NW5       30.14R FOG
CORPUS CHRISTI DRZL/FOG  47  46  97 N12       30.14R VSB 1
DALLAS FTW     FRZ DRZL  32  31  96 N7        30.29S FOG     WCI  26
DEL RIO        CLOUDY    43  42  97 S3        30.18R FOG
EL PASO        CLEAR     47  30  51 SE8       30.03R
HOUSTON INT    LGT RAIN  53  52  96 N6        30.18S FOG
LUBBOCK        FOG       24  23  96 E3        30.16S VSB 1/4
SAN ANGELO     CLOUDY    32  31  96 NE5       30.22R FOG     WCI  27
SAN ANTONIO    DRIZZLE   40  38  93 N8        30.17F FOG     WCI  34
WACO           CLOUDY    33  32  96 N8        30.27S FOG     WCI  26
WICHITA FALLS  NOT AVBL
$$
...OTHER LOCATIONS IN NEW MEXICO...

CITY           SKY/WX    TMP DP  RH WIND       PRES   REMARKS
ALAMAGORDO     CLEAR     48  32  53 MISG      30.04S
ALBUQUERQUE    LGT RAIN  34  31  88 E6        30.03F WCI  29
CANNON AFB     FOG       28  27  98 W10       30.09S VSB 1/2 WCI  18
CLOVIS         CLOUDY    27  25  93 SW12      30.10S WCI  16
HOLLOMAN AFB   CLEAR     46  31  56 SE6       30.02S
ROSWELL        CLOUDY    30  29  96 S8        30.11F FOG     WCI  22
RUIDOSO        CLEAR     46  32  57 W14G24    30.08R
SANTA FE       CLOUDY    33  31  92 N3        30.03R
TRUTH OR CONSE CLEAR     49  38  65 S10       30.00S
TUCUMCARI      CLOUDY    27  24  89 NW3       30.09S
$$


USA.gov is the U.S. government's official web portal to all federal, state and local government web resources and services.